TIANWANG 1A (TW-1A)
1 40928U 15051D   19299.88465455  .00002910  00000-0  71534-4 0  9996
2 40928  97.1357 328.2787 0009942 329.7884 154.6026 15.41401601229223
LAPAN A2
1 40931U 15052B   19298.08603472 -.00000769  00000-0 -19656-3 0  9993
2 40931   5.9852 220.8114 0010501 166.6827 193.4547 14.76605714220276
LQSAT
1 40958U 15057A   19299.77755666  .00000040  00000-0  13797-4 0  9998
2 40958  97.8858   5.3707 0018217 179.4821 180.6409 14.73093384217950
CHUBUSAT 2
1 41338U 16012B   19299.37227609  .00000406  00000-0  24843-4 0  9990
2 41338  31.0041  40.6077 0013936 307.8183  52.1190 15.00198411202402
CHUBUSAT 3
1 41339U 16012C   19299.65936788  .00000298  00000-0  16408-4 0  9994
2 41339  31.0111  36.7088 0013747 317.7293  42.2279 15.00369824202441
OUFTI-1
1 41458U 16025C   19299.48799915  .00001906  00000-0  10059-3 0  9992
2 41458  98.1005  32.9352 0164366 280.6652  77.6102 15.06106965192101
E-STAR-2
1 41459U 16025D   19299.80189837  .00001706  00000-0  91151-4 0  9996
2 41459  98.1007  32.8510 0165710 280.9594  77.3048 15.05729947192129
AAUSAT 4
1 41460U 16025E   19299.81030572  .00002076  00000-0  10716-3 0  9998
2 41460  98.0947  34.4389 0156102 272.5416  85.7926 15.07721596192278
NUSAT 1
1 41557U 16033B   19299.83162449  .00001810  00000-0  69970-4 0  9997
2 41557  97.4145  26.5670 0013401 191.3861 168.7077 15.27473029189956
BEESAT 4
1 41619U 16040W   19298.73028561  .00001785  00000-0  77892-4 0  9991
2 41619  97.3534 358.4673 0009664 293.0114  67.0103 15.23397003173501
PRATHAM
1 41783U 16059A   19299.40985875  .00000064  00000-0  21728-4 0  9994
2 41783  98.0526 356.0256 0032953 338.2038  21.7760 14.63016001164513
ALSAT 1N
1 41789U 16059G   19299.69772673  .00000083  00000-0  24794-4 0  9998
2 41789  98.0556 358.5878 0027692 326.4345  33.5095 14.64270433164674
NAYIF 1
1 42017U 17008BX  19299.75791247  .00002079  00000-0  84053-4 0  9994
2 42017  97.3902   5.4383 0007847  75.7454 284.4655 15.25827503149755
MAX VALIER SAT
1 42778U 17036P   19299.76154460  .00001302  00000-0  59539-4 0  9999
2 42778  97.3397 354.4681 0013808 123.9325 236.3226 15.22205516130023
